Japanese version Home page |
Updated on October 12, 2008 |
|
Orbital ElementsEpoch 2007 June 29.0 TT = JDT 2454280.5 T 2007 June 13.6505 TT MPC q 3.068926 (2000.0) P Q n 0.1028238 Peri. 210.4481 +0.4255220 -0.9039293 a 4.512393 Node 214.4205 +0.8448307 +0.4138078 e 0.319889 Incl. 4.3554 +0.3243333 +0.1080504 P 9.59 From 282 observations 1987-1999, mean residual 0".8.
|
Finding Charts
|
Magnitudes Graphm1 = 1.4 + 5 log d + 30.0 log r
|
The orbital elements are published at the MPC Ephemerides and Orbital Elements.
|